Location: Newark
(15.4608°S, 41.1635°W)
Time: 19:11:35
(UTC+00:00)

Courier 1B Rocket - Visible Passes

Search period start: 29 July 2021 00:00
Search period end: 08 August 2021 00:00
Orbit: 920 x 1202 km, 28.2° (Epoch: 28 July)

Date Brightness Start Highest point End Pass type
(mag) Time Alt. Az. Time Alt. Az. Time Alt. Az.
29 Jul 7.7 00:11:28 10° WSW 00:12:22 14° WSW 00:12:22 14° WSW visible
29 Jul 5.9 21:16:05 10° SW 21:23:31 44° SSE 21:29:06 17° E visible
29 Jul 6.0 23:09:55 10° WSW 23:15:30 51° WSW 23:15:30 51° WSW visible
30 Jul 5.3 22:08:31 10° WSW 22:16:24 73° SSE 22:18:43 48° E visible
31 Jul 7.4 00:02:58 10° W 00:05:07 19° W 00:05:07 19° W visible
31 Jul 5.6 21:07:13 10° WSW 21:14:55 56° SSE 21:22:02 12° E visible
31 Jul 5.7 23:01:12 10° WSW 23:08:27 59° NW 23:08:27 59° NW visible
01 Aug 5.4 21:59:41 10° WSW 22:07:35 84° NNW 22:11:52 30° ENE visible
01 Aug 7.3 23:54:52 10° W 23:58:17 22° WNW 23:58:17 22° WNW visible
02 Aug 5.5 20:58:21 10° WSW 21:06:11 74° SSE 21:14:00 10° ENE visible
02 Aug 6.3 22:52:44 10° W 23:00:00 41° NNW 23:01:48 36° N visible
03 Aug 5.9 21:51:01 10° WSW 21:58:43 60° NNW 22:05:25 14° NE visible
03 Aug 7.4 23:47:24 10° WNW 23:51:51 18° NW 23:51:51 18° NW visible
04 Aug 5.6 20:49:35 10° WSW 20:57:23 82° NNW 21:05:14 10° ENE visible
04 Aug 7.0 22:44:39 10° W 22:51:05 28° NNW 22:55:32 17° NNE visible
05 Aug 6.6 21:42:36 10° W 21:49:48 41° NNW 21:57:00 10° NE visible
05 Aug 7.8 23:41:48 10° NW 23:43:34 11° NNW 23:45:18 10° NNW visible
06 Aug 7.6 22:37:15 10° WNW 22:42:13 18° NNW 22:47:09 10° N visible
07 Aug 7.2 21:34:35 10° W 21:40:54 27° NNW 21:47:16 10° NNE visible
